Regional Weather Roundup
Issued by NWS

Home | Current Version | Previous Version | Text Only | Print | Product List | Glossary On
Versions: 1 2 3 4 5 6 7 8 9 10 11 12 13 14 15 16 17 18 19 20 21 22 23 24 25 26 27 28 29 30 31 32 33 34 35 36 37 38 39 40 41 42 43 44 45 46 47 48 49 50
000
ASUS45 KTFX 271919
RWRMT
MONTANA HOURLY WEATHER ROUNDUP
NATIONAL WEATHER SERVICE GREAT FALLS MT
1219 PM MST TUE JAN 27 2015

NOTE: "FAIR" INDICATES FEW OR NO CLOUDS BELOW 12000 FEET WITH NO
SIGNIFICANT WEATHER AND/OR OBSTRUCTIONS TO VISIBILITY.

* THESE STATIONS ARE NOT UNDER NWS QUALITY CONTROL. THEY DO NOT
   REPORT WEATHER SUCH AS PRECIPITATION OR FOG.

MTZ001>007-043-272000-
WEST OF THE DIVIDE
CITY           SKY/WX    TMP DP  RH WIND       PRES   REMARKS
KALISPELL      PTSUNNY   28  27  96 CALM      29.99F
MISSOULA       PTSUNNY   30  28  92 W5        30.07F WCI  25
BUTTE          PTSUNNY   37  28  70 SE3       30.04F
MULLAN PASS    CLOUDY    45  27  49 VRB6      30.02S
* ANACONDA     PTSUNNY   46  28  50 N/A        N/A
* ESSEX        N/A       43  31  63 N/A        N/A
* EUREKA APT   PTCLDY    39  32  76 CALM      29.97F
* HAMILTON APT PTSUNNY   37  32  82 N2        30.03F
* LIBBY APT    PTCLDY    30  28  92 CALM      30.01F VSB 3/4
* LINCOLN      N/A       37  26  64 S2         N/A
* LOOKOUT PASS N/A       43  31  63 SE3        N/A
* POLSON       N/A       43  33  68 S1         N/A
* RONAN APT    PTSUNNY   32  32 100 N/A        N/A
* SEELEY LAKE  N/A       32  27  82 N/A        N/A
* THOMP F APT  PTSUNNY   49  26  41 SE5        N/A
$$

MTZ008-052>055-272000-
SOUTHWEST MONTANA
CITY           SKY/WX    TMP DP  RH WIND       PRES   REMARKS
BOZEMAN        PTSUNNY   43  30  60 NW3       30.02F
DILLON         PTSUNNY   50  28  43 S9        30.04F
* W YELLOWSTON PTSUNNY   26  23  88 W1         N/A
* THREE FORKS  PTSUNNY   36 -18   9 N/A        N/A
* BOULDER HILL N/A       42  23  47 SW9        N/A
* MONIDA PASS  N/A       39  26  60 E14G19     N/A   WCI  31
* RAYNOLDS PAS N/A       38  20  48 SE19       N/A   WCI  28
* WHITEHALL    N/A       45  31  58 NE3        N/A
* WISE RIVER   N/A       30  25  82 W3         N/A
$$

MTZ009>010-012-014-046-048-049-054-272000-
EAST SLOPES AND CENTRAL MONTANA
CITY           SKY/WX    TMP DP  RH WIND       PRES   REMARKS
CUT BANK       CLOUDY   N/A N/A N/A N/A       29.86F
GREAT FALLS    PTSUNNY   64  25  23 SW21      29.89F
HELENA         PTCLDY    43  32  65 CALM      30.01F
MALMSTROM AFB  PTSUNNY   63  28  27 SW18G23   29.91F
* CONRAD       CLOUDY    55  28  35 CALM       N/A
* DEARBORN     N/A       58  28  32 S14        N/A
* EAST GLACIER N/A       52  21  30 W17G22     N/A
* MONARCH      N/A       55  20  25 SW12       N/A
* PENDROY      N/A       53  25  34 SW1        N/A
* ROGERS PASS  N/A       50  23  35 SE12G17    N/A
* SWEET GRASS  N/A       51  24  35 SW16G21    N/A
* WHITE SULPH  N/A       48  34  59 W4         N/A
$$

MTZ011-013-016-021-035-040-045-047-050-051-272000-
NORTH CENTRAL MONTANA
CITY           SKY/WX    TMP DP  RH WIND       PRES   REMARKS
HAVRE          CLOUDY    55  36  49 SW20      29.83F
LEWISTOWN      CLOUDY    57  30  36 CALM      29.92F
* CHINOOK      CLOUDY    43  36  76 E7        29.83F
* MALTA APT    CLOUDY    43  36  76 N/A        N/A
* CHESTER      N/A       42  32  68 NW1        N/A
* DENTON       N/A       55  32  42 S4         N/A
* GEYSER       N/A       62  26  25 SW17G25    N/A
* JUDITH GAP   N/A       58  27  31 SW14       N/A
* LOMA         N/A       58  36  44 SW11G16    N/A
$$

MTZ017>020-022>027-061-062-272000-
NORTHEAST MONTANA
CITY           SKY/WX    TMP DP  RH WIND       PRES   REMARKS
GLASGOW        CLOUDY    43  36  76 CALM      29.85F
GLENDIVE       PTSUNNY   46  36  68 S9        29.87F
JORDAN         PTSUNNY   52  36  55 CALM      29.86F
SIDNEY         PTSUNNY   48  37  66 S10       29.86F
WOLF POINT     PTSUNNY   43  36  76 SW5       29.85F
* BEAVER HILL  N/A       50  33  52 S13G18     N/A
* CIRCLE       N/A       52  39  61 SW5        N/A
* LINDSAY DVD  N/A       59  31  35 SW12       N/A
* NAVAJO       N/A       46  33  61 W17        N/A
* PLENTYWOOD A PTSUNNY   43  37  79 CALM      29.81F
* POPLAR APT   PTSUNNY   45  36  71 N/A       29.84F
* SACO         N/A       42  35  76 SE4        N/A
* SCOBEY APT   CLOUDY    46  36  68 N/A        N/A
$$

MTZ028>042-056>058-272000-
SOUTHCENTRAL AND SOUTHEAST MONTANA
CITY           SKY/WX    TMP DP  RH WIND       PRES   REMARKS
BAKER          PTCLDY    55  36  49 W9        29.90F
BILLINGS       PTSUNNY   61  28  29 SW14      29.93F
LIVINGSTON     PTCLDY    63  23  22 SW21G35   29.96F
MILES CITY     PTCLDY    52  36  55 SW3       29.89F
* BIG TIMBER A PTSUNNY   59  25  27 W13       29.96F
* FORSYTH APT  PTCLDY    61  30  31 CALM      29.88F
* LAUREL APT   PTSUNNY   64  28  26 SW15G22    N/A
* ROUNDUP APT  PTSUNNY   61  27  27 S17G25     N/A
* ALZADA       N/A       60  35  39 SW1        N/A
* HYSHAM       N/A       60  27  28 W9G15      N/A
* REED POINT   N/A       41  33  73 SE2        N/A
* ROSCOE HILL  N/A       62  14  15 S15G22     N/A
$$

REGIONAL REPORTS...DAKOTAS
CITY           SKY/WX    TMP DP  RH WIND       PRES   REMARKS
WILLISTON      CLOUDY    46  34  63 S5        29.83F
DICKINSON      PTCLDY    61  36  39 W9        29.83F
BEACH          SUNNY     50  34  54 W15       29.87F
CROSBY         SUNNY     45  39  80 SW13      29.79F
TIOGA          SUNNY     41  41 100 SW8       29.83F
WATFORD CITY   SUNNY     48  37  66 SW9       29.81F
BISMARCK       PTCLDY    46  32  58 SW10      29.87F
GRAND FORKS    FOG       30  28  92 S16G22    30.00F WCI  19
FARGO          CLOUDY    30  28  92 SE17G24   30.03F WCI  18
BUFFALO SD     PTSUNNY   63  30  29 W9        29.84F
$$

REGIONAL REPORTS...WYOMING/IDAHO/WASHINGTON
CITY           SKY/WX    TMP DP  RH WIND       PRES   REMARKS
GILLETTE       SUNNY     63  30  29 SW16      29.97F
SHERIDAN       SUNNY     57  32  39 N8        29.92F
CODY           SUNNY     64  19  18 W13G18    30.00F
YELLOWSTONE LA PTCLDY    23  16  74 CALM      30.23F
SALMON         CLOUDY   N/A N/A N/A CALM      30.15F VSB 1 1/4
MULLAN PASS    CLOUDY    45  27  49 VRB6      30.02S
SAND POINT     FOG      N/A N/A N/A CALM      30.04S VSB M1/4
SPOKANE        FOG       32  30  92 NE6       30.01S VSB M1/4 WCI  26
$$

REGIONAL REPORTS...ALBERTA
CITY           SKY/WX    TMP DP  RH WIND       PRES   REMARKS
CALGARY        PTSUNNY   57  25  29 W10G17    29.75F
LETHBRIDGE     PTSUNNY   54  27  35 SW15      29.79F
MEDICINE HAT   CLOUDY    43  34  71 SW6       29.79F
EDMONTON       PTSUNNY   34  30  85 N2        29.79S
WATERTON GATE  N/A       55  18  23 SW12G22    N/A
CARDSTON       N/A       52  27  38 NE2        N/A
MILK RIVER     N/A       46  30  54 SW7        N/A
$$

REGIONAL REPORTS...SASKATCHEWAN
CITY           SKY/WX    TMP DP  RH WIND       PRES   REMARKS
SWIFT CURRENT  PTSUNNY   39  34  82 W8        29.77S WCI  33
MOOSE JAW      CLOUDY    34  32  92 NW8       29.80R WCI  27
REGINA         CLOUDY    34  28  79 N2        29.79R
VAL MARIE      N/A       43  37  79 S1         N/A
ASSINIBOIA     N/A       41  32  70 W7         N/A
CORONACH       N/A       46  36  68 SW7        N/A

$$




USA.gov is the U.S. government's official web portal to all federal, state and local government web resources and services.